OBJECT A, 66310

Orbit data source: Space-Track

You're viewing an Uncataloged Satellite

Recently launched and/or uncataloged satellites may have evolving metadata. Metadata may include but not limited to: Owner, Maufacturer, Bus, Motor, and Mission.

OBJECT A, 66310 is a satellite owned by ISRO (IN) in HEO that was launched on Sun, 02 Nov 2025 UTC launched from the Sirharikota (SRI). Unknown objects in Earth's orbit typically refer to objects detected orbiting the Earth but have not yet been identified or cataloged. These objects could be anything from previously untracked satellites, spent rocket stages, debris from satellite collisions, or even natural meteoroids temporarily captured by Earth's gravity.

Loading next visibility...
Identifier
66310, 2025-249A
Orbit
HEO
Country
Flag of ININ / IND
Related business
Manufacturer
ISRO SAC/Banga
Mission
Operational spacecraft
Bus & Motor
I4K, ISRO LAM
Mass
4,400 kg wet, ~2,000 kg dry
Launch date (UTC)
2025-11-02 (6 days ago)
Launch vehicle
Unknown
Launch site
Sirharikota (SRI)
Object type
Unknown
Shape & HBR
Unknown
Radar Cross Section
RCS unknown

Expand to show TLE details & history
Last TLE update: 1 day ago

TLE from 1 day ago
0 OBJECT A
1 66310U 25249A   25310.82741167  .00041354 -98993-6  10966-2 0  9991
2 66310  21.3282 158.2190 6684291 182.5337 170.5852  3.12124872   151
Epoch: 2025-11-06T19:51Z
TLE epoch observation values (Epoch: 2025-11-06T19:51:28.368Z)
Latitude
-0.00018°
Longitude
174.08463°
Altitude
26,541.564 km
Speed
2.016 km/s
True Right ascension
10h 32m 55s
True Declination
0° 00' 01"
Sunlit
Object was in daylight at epoch
Visualization orbit readout
Latitude
Unknown
Longitude
Unknown
Altitude
Unknown
Speed
Unknown
Apparent Right ascension
Unknown
Apparent Declination
Unknown
Sunlit
N/A
Visualization observer readout
Local Sidereal Time
17:59:25
Azimuth
Unknown
Elevation
Unknown
Doppler factor
Unknown
Orbital elements
Apogee altitude
26,627.355 km
Perigee altitude
181.123 km
Semi-major axis
19,782.376 km
Eccentricity
0.66843
Inclination
21.3282°
RAAN
158.219°
Arg. of periapsis
182.5337°
True anomaly
177.48116°
Mean anomaly
170.5852°
Eccentric anomaly
174.35343°
Mean motion
0.78006 °/min
Orbital period
461.51 mins
BSTAR
0.0010966
Loading maneuver chart data...
Computing Atmospheric mass density...
Loading historical data...
Loading historical data...
Loading historical data...
Loading historical data...
Loading historical data...
Loading historical data...
Loading historical data...
Other satellites on launch #249 in the year 2025 (2025-11-02 UTC)

Documentation

Showing up to 5 results
|